Location: Melbourne
(37.8666°S, 145.1333°E)
Time: 23:22:56
(UTC+11:00)

Iridium 72 - Visible Passes

Search period start: 08 February 2016 00:00
Search period end: 18 February 2016 00:00
Orbit: 776 x 779 km, 86.4° (Epoch: 07 February)

Date Brightness Start Highest point End Pass type
(mag) Time Alt. Az. Time Alt. Az. Time Alt. Az.
08 Feb 8.4 21:57:19 10° SW 22:00:08 15° WSW 22:02:55 10° WNW visible
09 Feb 7.8 21:22:31 10° SSW 21:26:55 27° W 21:31:16 10° NW visible
10 Feb 6.6 20:48:28 10° SSW 20:53:35 51° W 20:58:38 10° NNW visible
12 Feb 8.4 21:23:14 10° SW 21:26:51 19° W 21:30:25 10° WNW visible
13 Feb 7.5 20:48:50 10° SSW 20:53:35 34° W 20:58:16 10° NNW visible
15 Feb 8.8 21:24:29 10° SW 21:26:43 13° WSW 21:28:55 10° WNW visible
16 Feb 8.3 20:49:22 10° SSW 20:53:32 24° W 20:57:39 10° NW visible
